Location: Lucerne Valley
(34.4439°N, 116.9669°E)
Time: 15:17:11
(UTC-07:00)

Vanguard 1 Rocket - Visible Passes

Search period start: 18 October 2017 00:00
Search period end: 28 October 2017 00:00
Orbit: 655 x 4222 km, 34.3° (Epoch: 18 October)

Date Brightness Start Highest point End Pass type
(mag) Time Alt. Az. Time Alt. Az. Time Alt. Az.
18 Oct 10.8 12:54:51 10° S 12:59:42 13° SSE 13:03:35 10° SE visible
19 Oct 9.8 14:06:00 10° SSW 14:15:06 27° SSE 14:20:46 10° E visible
20 Oct 10.4 12:54:17 10° SSW 13:03:13 20° SSE 13:09:15 10° ESE visible
21 Oct 10.9 11:44:06 10° S 11:50:47 14° SSE 11:56:00 10° SE visible
21 Oct 9.4 14:07:43 10° SW 14:18:32 37° SSE 14:24:42 10° E visible
22 Oct 10.1 12:55:00 10° SSW 13:06:40 28° SSE 13:13:44 10° E visible
23 Oct 10.7 11:47:42 16° S 11:54:16 21° SSE 12:01:48 10° ESE visible
23 Oct 9.1 14:09:49 10° SW 14:21:54 48° SSE 14:28:25 10° E visible
24 Oct 11.1 10:41:37 14° SSE 10:41:37 14° SSE 10:47:40 10° ESE visible
24 Oct 9.8 12:59:01 15° SSW 13:10:04 37° SSE 13:17:43 10° E visible
25 Oct 10.4 11:52:47 25° S 11:57:39 29° SSE 12:06:23 10° E visible
25 Oct 8.8 14:12:11 10° WSW 14:25:15 60° SSE 14:31:58 10° E visible
26 Oct 10.9 10:46:25 20° SE 10:46:25 20° SE 10:53:48 10° ESE visible
26 Oct 9.5 13:03:47 22° SW 13:13:23 48° SSE 13:21:27 10° E visible
27 Oct 10.1 11:57:17 34° S 12:00:58 37° SSE 12:10:26 10° E visible
27 Oct 8.7 14:14:48 10° WSW 14:28:33 70° SSE 14:35:29 10° E visible
